Regional Weather Roundup
Issued by NWS

Home | Current Version | Previous Version | Text Only | Print | Product List | Glossary On
Versions: 1 2 3 4 5 6 7 8 9 10 11 12 13 14 15 16 17 18 19 20 21 22 23 24 25 26 27 28 29 30 31 32 33 34 35 36 37 38 39 40 41 42 43 44 45 46 47 48 49 50
000
ASUS43 KMKX 211521
RWRWI

WISCONSIN REGIONAL WEATHER ROUNDUP
NATIONAL WEATHER SERVICE MILWAUKEE/SULLIVAN WI
1000 AM CDT MON APR 21 2014

NOTE: "FAIR" INDICATES FEW OR NO CLOUDS BELOW 12,000 FEET WITH NO
SIGNIFICANT WEATHER AND/OR OBSTRUCTIONS TO VISIBILITY.

WIZ001-002-006>008-014>016-023>028-211600-
NORTHWEST WISCONSIN

CITY           SKY/WX    TMP DP  RH WIND       PRES   REMARKS
SUPERIOR ARPT  SUNNY     58  36  43 W5        29.85F
ASHLAND        PTSUNNY   53  47  79 SW6       29.85F
HAYWARD        MOSUNNY   55  48  77 SW5       29.87F
SIREN          MOSUNNY   60  38  44 NW10      29.89S
RICE LAKE      PTSUNNY   57  55  94 SW8       29.91S
LADYSMITH      CLOUDY    53  52  98 SW7       29.90F FOG
EAU CLAIRE     CLOUDY    62  55  77 W9        29.89F
MENOMONIE      CLOUDY    62  54  76 W12       29.90F
NEW RICHMOND   MOSUNNY   62  46  55 W9        29.91F
OSCEOLA        MOSUNNY   62  42  49 W8        29.94S
$$

WIZ003>005-009-010-017-018-211600-
NORTH CENTRAL WISCONSIN

CITY           SKY/WX    TMP DP  RH WIND       PRES   REMARKS
WOODRUFF       FOG       52  49  90 S3        29.86F VSB<1/4
RHINELANDER    CLOUDY    50  50 100 SW5       29.87S FOG
EAGLE RIVER    CLOUDY    46  46 100 CALM      29.86F FOG
LAND O LAKES   CLOUDY    47  47 100 SW5       29.87F
PHILLIPS       FOG       49  49 100 CALM      29.87F VSB 1/2
TOMAHAWK       CLOUDY    50  49  97 CALM      29.88F FOG
MEDFORD        CLOUDY    55  54  95 SW6       29.89F FOG
MERRILL        CLOUDY    56  53  90 SW22G77   29.88S
$$

WIZ029-030-035-036-043>047-211600-
CENTRAL WISCONSIN

CITY           SKY/WX    TMP DP  RH WIND       PRES   REMARKS
WAUSAU         CLOUDY    57  52  83 W3        29.88R
MOSINEE        MOSUNNY   55  55 100 S5        29.90R
MARSHFIELD     CLOUDY    56  54  93 W6        29.90R
STEVENS POINT  CLOUDY    56  53  90 SW5       29.89F
WAUPACA        CLOUDY    59  57  94 S5        29.89F
WAUTOMA        CLOUDY    60  56  87 SW3       29.90F
WISC RAPIDS    LGT RAIN  59  55  87 SW6       29.90F
CAMP DOUGLAS   CLOUDY    59  59 100 S5        29.90
$$

WIZ011>013-019>022-031-037>040-048>050-211600-
NORTHEAST WISCONSIN

CITY           SKY/WX    TMP DP  RH WIND       PRES   REMARKS
ANTIGO         CLOUDY    56  54  92 S10       29.87S
STURGEON BAY   PTSUNNY   52  46  82 SW8       29.90R
GREEN BAY      CLOUDY    57  52  83 SW7       29.89S HAZE
MANITOWOC      CLOUDY    59  50  72 S3        29.90S
APPLETON       CLOUDY    55  52  88 SW6       29.90F
CLINTONVILLE   CLOUDY    55  54  94 S6        29.88F FOG
OSHKOSH        CLOUDY    62  52  69 W6        29.89F
$$

WIZ032>034-041-042-053>061-211600-
SOUTHWEST WISCONSIN

CITY           SKY/WX    TMP DP  RH WIND       PRES   REMARKS
LA CROSSE      CLOUDY    60  56  86 S9        29.88F
SPARTA         CLOUDY    56  56  99 CALM      29.90F FOG
VIROQUA        CLOUDY    60  59  97 SW6       29.92F
BOSCOBEL       CLOUDY    61  57  87 CALM      29.92F
PRAIRIE DU CHI CLOUDY    58  56  92 CALM      29.93S FOG
PLATTEVILLE    FAIR      61  56  84 N3        29.92F
$$

WIZ056-057-062-063-064-067-068-211600-
SOUTH CENTRAL WISCONSIN

CITY           SKY/WX    TMP DP  RH WIND       PRES   REMARKS
BARABOO/DELLS  CLOUDY    62  54  76 SW3       29.90F
LONE ROCK      CLOUDY    61  56  83 CALM      29.91F
WATERTOWN      LGT RAIN  60  55  83 N3        29.89S
MADISON        TSTM      59  53  80 SW6       29.92R
MIDDLETON      CLOUDY    62  55  76 S7        29.93R
MONROE         DRIZZLE   62  49  63 W6        29.92S
JANESVILLE     CLOUDY    64  48  55 W12       29.91R
$$

WIZ051-052-058>065-066-070>072-211600-
SOUTHEAST WISCONSIN

CITY           SKY/WX    TMP DP  RH WIND       PRES   REMARKS
MILWAUKEE      PTSUNNY   70  46  42 W8        29.90F
WAUKESHA       SUNNY     57  52  82 W9        29.93
MILWAUKEE/TIMM SUNNY     70  46  43 SW6       29.89F
RACINE         MOSUNNY   71  47  42 SW6       29.90F
BURLINGTON     MOSUNNY   66  46  49 SW7       29.90S
KENOSHA        PTSUNNY   68  47  46 SW8       29.90F
FOND DU LAC    CLOUDY    63  53  70 W3        29.89F
SHEBOYGAN      CLOUDY    62  51  67 CALM      29.89F
WEST BEND      CLOUDY    68  48  49 NW6       29.88F
JUNEAU         PTSUNNY   66  52  59 CALM      29.90F
$$

LSZ147-162-211600-
LAKE SUPERIOR

STATION/POSITION TIME  TEMP    WIND        PRES    WAVE
                       AIR SEA DIR/SP/G            HT/PER
                 (UTC) (F)     (DEG/KT/KT) (MB)    (FT/S)
DEVILS ISLAND    1500   47     230/  5/  6 1010.9S
PORT WING        1430   41     280/  8/ 13 1011.2F
SAXON HARBOR     1440          190/  5/ 10 1010.5F
$$

LMZ867-665-643>646-211600-
LAKE MICHIGAN

STATION/POSITION TIME  TEMP    WIND        PRES    WAVE
                       AIR SEA DIR/SP/G            HT/PER
                 (UTC) (F)     (DEG/KT/KT) (MB)    (FT/S)
NORTHPORT PIER   1400   38     140/  3/  4 1012.5F
SISTER BAY       1409   35        CALM       N/A
KEWAUNEE LAKESHO 1400   42     140/  2/  3 1012.5F
SHEBOYGAN LAKESH 1500   52     160/  1/  1 1012.8F
PORT WASHINGTON  1400   51      70/  3/  4 1012.9
MILWAUKEE LAKESH 1500   52      70/  1/  2   N/A
KENOSHA   LAKESH 1500   51     170/  7/  9   N/A
$$

TC  - TEMPERATURE IN CELSIUS
VSB - VISIBILITY IN STATUTE MILES
WCI - WIND CHILL INDEX
HX  - HEAT INDEX




USA.gov is the U.S. government's official web portal to all federal, state and local government web resources and services.